MELBOURNE AIRPORT, Australia

6:56 PM AEDT on March 29, 2017 (GMT +1100)
MELBOURNE AIRPORT

Weather History for 94866 - May, 2013

Change the Weather History Date:

Friday, May 10, 2013

  Actual Average Record
Temperature  
Mean Temperature 64 °F -  
Max Temperature 77 °F 58 °F - ()
Min Temperature 52 °F 44 °F - ()
Growing Degree Days 14 (Base 50)    
Moisture  
Dew Point 47 °F    
Average Humidity 56    
Maximum Humidity 82    
Minimum Humidity 22    
Precipitation  
Precipitation 0.00 in 0.06 in - ()
Sea Level Pressure  
Sea Level Pressure 30.35 in    
Wind  
Wind Speed 11 mph ()    
Max Wind Speed 16 mph    
Max Gust Speed -    
Visibility 19.0 miles    
Events      
T = Trace of Precipitation, MM = Missing Value Source: Averaged Metar Reports

Daily Weather History Graph

Daily Weather History Graph

Search for Another Location

Airport or City:

Trip Planner

Search our weather history database for the weather conditions in past years. The results will help you decide how hot, cold, wet, or windy it might be!

Date:

Astronomy

May. 10, 2013 Rise Set
Actual Time 7:09 AM AEST 5:24 PM AEST
Civil Twilight 6:41 AM AEST 5:52 PM AEST
Nautical Twilight 6:09 AM AEST 6:23 PM AEST
Astronomical Twilight 5:39 AM AEST 6:54 PM AEST
Moon 7:06 AM AEST (5/10) 5:32 PM AEST (5/10)
Length of Visible Light 11h 10m
Length of Day
10h 15m
New Moon, 0% of the Moon is Illuminated
May 10
New Moon
May 18
First Quarter
May 25
Full
Jun 1
Last Quarter
Jun 9
New

Hourly Weather History & Observations

Time (AEST) Temp. Dew Point Humidity Pressure Visibility Wind Dir Wind Speed Gust Speed Precip Events Conditions
12:00 AM 59 °F 47 °F 56% 30.37 in 19 mi North 13.8 mph - -   Partly Cloudy
12:00 AM 59.0 °F 48.2 °F 67% 30.36 in - North 13.8 mph - N/A   Clear
12:30 AM 59.0 °F 48.2 °F 67% 30.36 in - North 11.5 mph - N/A   Clear
1:00 AM 59 °F 48 °F 57% 30.36 in - North 11.5 mph - -  
1:00 AM 59.0 °F 48.2 °F 67% 30.36 in - North 11.5 mph - N/A   Clear
1:30 AM 55.4 °F 48.2 °F 77% 30.36 in - North 11.5 mph - N/A   Clear
2:00 AM 59.0 °F 48.2 °F 67% 30.36 in - North 13.8 mph - N/A   Clear
2:30 AM 59.0 °F 48.2 °F 67% 30.36 in - North 16.1 mph - N/A   Clear
3:00 AM 56 °F 48 °F 67% 30.36 in 19 mi North 11.5 mph - -   Partly Cloudy
3:00 AM 55.4 °F 48.2 °F 77% 30.36 in - North 11.5 mph - N/A   Clear
3:30 AM 53.6 °F 48.2 °F 82% 30.36 in - West 3.5 mph - N/A   Clear
4:00 AM 53 °F 47 °F 73% 30.37 in - North 9.2 mph - -  
4:00 AM 53.6 °F 46.4 °F 77% 30.36 in - North 9.2 mph - N/A   Clear
4:30 AM 55.4 °F 48.2 °F 77% 30.33 in - North 12.7 mph - N/A   Clear
5:00 AM 55.4 °F 48.2 °F 77% 30.33 in - North 13.8 mph - N/A   Clear
5:30 AM 59.0 °F 48.2 °F 67% 30.36 in - NNW 10.4 mph - N/A   Clear
6:00 AM 56 °F 48 °F 66% 30.38 in 19 mi NNE 8.1 mph - -   Partly Cloudy
6:00 AM 55.4 °F 48.2 °F 77% 30.36 in - NNE 8.1 mph - N/A   Clear
6:30 AM 53.6 °F 48.2 °F 82% 30.36 in - North 6.9 mph - N/A   Clear
7:00 AM 58 °F 48 °F 61% 30.39 in - North 16.1 mph - -  
7:00 AM 57.2 °F 48.2 °F 72% 30.36 in - North 16.1 mph - N/A   Clear
7:30 AM 59.0 °F 48.2 °F 67% 30.39 in - North 15.0 mph - N/A   Clear
8:00 AM 57.2 °F 48.2 °F 72% 30.39 in - North 15.0 mph - N/A   Clear
8:30 AM 60.8 °F 50.0 °F 68% 30.39 in - North 12.7 mph - N/A   Clear
9:00 AM 62 °F 49 °F 52% 30.41 in 19 mi North 11.5 mph - -   Partly Cloudy
9:00 AM 62.6 °F 48.2 °F 59% 30.39 in - North 11.5 mph - N/A   Clear
9:30 AM 64.4 °F 50.0 °F 59% 30.39 in - North 13.8 mph - N/A   Clear
10:00 AM 67 °F 50 °F 43% 30.42 in - North 15.0 mph - -  
10:00 AM 68.0 °F 50.0 °F 52% 30.39 in - North 15.0 mph - N/A   Clear
10:30 AM 69.8 °F 50.0 °F 49% 30.39 in - North 15.0 mph - N/A   Clear
11:00 AM 71.6 °F 50.0 °F 46% 30.39 in - NNE 15.0 mph - N/A   Clear
11:30 AM 71.6 °F 50.0 °F 46% 30.39 in - North 13.8 mph - N/A   Clear
12:00 PM 74 °F 49 °F 30% 30.38 in 19 mi North 16.1 mph - -   Partly Cloudy
12:00 PM 73.4 °F 48.2 °F 41% 30.36 in - North 16.1 mph - N/A   Clear
12:30 PM 75.2 °F 48.2 °F 38% 30.36 in - North 12.7 mph - N/A   Clear
1:00 PM 76 °F 45 °F 22% 30.36 in - North 13.8 mph - -  
1:00 PM 75.2 °F 44.6 °F 34% 30.33 in - North 13.8 mph - N/A   Clear
1:30 PM 75.2 °F 44.6 °F 34% 30.33 in - North 15.0 mph - N/A   Clear
2:00 PM 77.0 °F 42.8 °F 29% 30.33 in - North 12.7 mph - N/A   Clear
2:30 PM 77.0 °F 46.4 °F 34% 30.30 in - NNE 12.7 mph - N/A   Clear
3:00 PM 76 °F 45 °F 22% 30.32 in 19 mi North 13.8 mph - -   Partly Cloudy
3:00 PM 77.0 °F 44.6 °F 32% 30.30 in - North 13.8 mph - N/A   Clear
3:30 PM 75.2 °F 44.6 °F 34% 30.30 in - North 12.7 mph - N/A   Clear
4:00 PM 74 °F 45 °F 24% 30.32 in - NNE 12.7 mph - -  
4:00 PM 75.2 °F 44.6 °F 34% 30.30 in - NNE 12.7 mph - N/A   Clear
4:30 PM 73.4 °F 44.6 °F 36% 30.30 in - NNE 10.4 mph - N/A   Clear
5:00 PM 69.8 °F 46.4 °F 43% 30.33 in - NNE 9.2 mph - N/A   Clear
5:30 PM 66.2 °F 46.4 °F 49% 30.33 in - NNE 8.1 mph - N/A   Clear
6:00 PM 62 °F 46 °F 45% 30.35 in 19 mi NNE 9.2 mph - -   Partly Cloudy
6:00 PM 62.6 °F 46.4 °F 55% 30.33 in - NNE 9.2 mph - N/A   Clear
6:30 PM 66.2 °F 44.6 °F 46% 30.33 in - North 8.1 mph - N/A   Clear
7:00 PM 65 °F 45 °F 36% 30.35 in - North 9.2 mph - -  
7:00 PM 64.4 °F 44.6 °F 49% 30.33 in - North 9.2 mph - N/A   Clear
7:30 PM 64.4 °F 44.6 °F 49% 30.33 in - NNW 10.4 mph - N/A   Clear
8:00 PM 60.8 °F 44.6 °F 55% 30.33 in - North 9.2 mph - N/A   Clear
8:30 PM 59.0 °F 46.4 °F 63% 30.33 in - North 10.4 mph - N/A   Clear
9:00 PM 58 °F 46 °F 53% 30.35 in 19 mi North 11.5 mph - -   Partly Cloudy
9:00 PM 57.2 °F 46.4 °F 67% 30.33 in - North 11.5 mph - N/A   Clear
9:30 PM 57.2 °F 44.6 °F 63% 30.33 in - North 9.2 mph - N/A   Clear
10:00 PM 56 °F 46 °F 60% 30.35 in - North 10.4 mph - -  
10:00 PM 55.4 °F 46.4 °F 72% 30.33 in - North 10.4 mph - N/A   Clear
10:30 PM 55.4 °F 46.4 °F 72% 30.33 in - North 10.4 mph - N/A   Clear
11:00 PM 55.4 °F 46.4 °F 72% 30.33 in - North 10.4 mph - N/A   Clear
11:30 PM 57.2 °F 46.4 °F 67% 30.33 in - North 10.4 mph - N/A   Clear